Tracking 29892 objects as of 21-Nov-2024
HD Live streaming from Space Station
objects crossing your sky now

STARLINK-1361

Track STARLINK-1361 now!
10-day predictions
STARLINK-1361 is classified as:


NORAD ID: 45567
Int'l Code: 2020-025AN
Perigee: 553.2 km
Apogee: 555.2 km
Inclination: 53.1 °
Period: 95.6 minutes
Semi major axis: 6925 km
RCS: Unknown
Launch date: April 22, 2020
Source: United States (US)
Launch site: AIR FORCE EASTERN TEST RANGE (AFETR)
Your satellite tracking list
Your tracking list is empty




NASA's NSSDC Master Catalog

Two Line Element Set (TLE):
1 45567U 20025AN  24325.64338440  .00017481  00000-0  11881-2 0  9996
2 45567  53.0528  54.6938 0001437  85.7767 274.3386 15.06444395253927
Source of the keplerian elements: AFSPC